Simultaneous Nadir Overpasses (SNOs) Predictions

Prediction of SNOs between AQUA and NPP Satellite Orbit:

Table of predicted SNOs for the next 14.0 days since TLE Epoch: 3/30/2024
Index Date (AQUA) Time (AQUA) Lat,Lon (AQUA) SZA (AQUA ) Date (NPP) Time (NPP) Lat,Lon (NPP) SZA (NPP ) Distance(km) Time Diff (sec)
1 04/01/2024 09:49:32 -81.20, 133.91 96.34 04/01/2024 09:48:59 -81.20, 134.02 96.34 1.91 33
2 04/01/2024 10:38:53 81.22, -58.08 83.60 04/01/2024 10:39:42 81.21, -57.93 83.55 2.52 49
3 04/03/2024 22:43:22 -81.19, -59.61 97.32 04/03/2024 22:42:55 -81.19, -59.60 97.31 0.27 27
4 04/03/2024 23:32:43 81.21, 108.37 82.63 04/03/2024 23:33:38 81.21, 108.42 82.58 0.89 55
5 04/06/2024 11:37:11 -81.19, 106.95 98.30 04/06/2024 11:36:51 -81.20, 107.08 98.31 2.24 20
6 04/06/2024 12:26:32 81.21, -85.09 81.65 04/06/2024 12:27:34 81.21, -84.93 81.59 2.84 62
7 04/09/2024 00:30:58 -81.19, -86.39 99.28 04/09/2024 00:30:47 -81.20, -86.33 99.28 1.18 11
8 04/09/2024 01:20:19 81.21, 81.54 80.67 04/09/2024 01:21:30 81.22, 81.63 80.62 1.69 71



Historial Predications of SNOs between AQUA and NPP
